Reflectivity
-20 -20 -20 -20 -20 -20 -20 -20 -20 -20 -20 -20 20 -20 -20 11 -12 -20 -15 -20 -20 -20 -11 -20 -20 -20 -4 -20 -14 2 -20 -20
-20 -20 -20 -20 -20 -20 -20 -20 -20 -20 -20 -20 -20 -16 -9 3 13 -16 -20 5 -20 -20 -20 -20 -20 -20 -15 -20 -20 9 -20 -20
-20 -20 -20 -20 -20 -20 -20 -20 -20 -20 -20 -20 -20 12 7 -20 14 -16 -10 -20 -20 -20 -20 -18 -20 -20 -11 -20 -20 -20 9 16
-20 -20 -20 -20 -20 -20 -20 -20 -20 -20 -20 -20 -20 9 7 17 3 10 -20 -20 -20 -20 -20 -0 -20 -20 -20 -3 -20 -20 -20 -20
-20 -20 -20 -20 -20 -20 -20 -20 -20 -20 -20 -20 -20 -20 27 7 -20 6 9 -20 -20 -20 -20 -20 -20 -20 -20 -18 -20 -20 -20 -5
-20 -20 -20 -20 -20 -20 -20 -20 -20 -20 -20 -20 -20 -20 -20 28 -18 33 15 -19 -13 -20 -20 -20 -20 -20 -20 -20 -20 -20 -20 -20
-20 -20 -20 -20 -20 -20 -20 -20 -20 -20 -20 -20 -20 -20 -20 -20 32 -9 37 12 -4 -20 -20 -20 -2 5 -20 -20 -20 -20 -20 -20
-20 -19 -6 -6 -20 -20 -20 -20 -20 -20 -20 -20 -20 -20 -20 -20 29 -12 35 12 -5 -20 -20 -18 -17 3 -20 -20 -20 -20 -20 -20
0 4 2 3 -10 -20 -20 -20 -13 -20 -2 3 -20 -20 -20 -15 41 38 19 -9 3 -20 -20 -20 -20 0 -15 8 -15 -6 -20 -20
-5 1 3 2 -6 -7 -20 -15 1 5 2 12 -20 -20 -20 -20 14 29 25 -17 21 8 -17 -20 -8 6 0 28 -6 21 -20 -20
2 0 9 6 5 3 -4 8 15 23 26 34 -1 -3 -14 -20 20 36 41 33 31 13 -5 -15 0 3 16 9 -20 -8 -17 -20
3 -5 2 20 21 18 29 29 34 29 25 24 18 13 23 -20 32 45 43 37 -1 10 -18 20 38 32 49 25 8 -0 16 -20
-2 1 -15 10 32 36 38 34 37 38 32 24 6 28 20 11 21 44 26 33 28 19 -9 1 33 20 31 20 29 23 18 6
-20 -20 -7 12 19 34 39 36 37 40 34 21 29 23 4 15 43 37 29 26 41 34 -5 6 30 38 12 11 14 12 -13 -7
-7 -20 -20 -8 15 27 36 39 39 39 37 33 18 30 26 42 43 38 33 31 46 31 14 13 34 31 27 11 -9 -20 -20 -20
-10 -14 -18 -16 -6 13 18 28 31 34 38 26 15 23 33 32 35 35 31 29 40 41 33 20 28 7 1 -1 -14 -20 -20 -20
-20 -20 -20 -5 -20 -20 6 10 25 24 18 26 36 35 30 31 32 27 21 30 37 38 38 33 32 17 -4 -12 -20 -20 -20 -20
-20 -20 -20 1 -15 -16 -6 -6 -12 11 19 13 21 27 30 30 26 30 33 39 38 33 26 14 10 8 -16 -20 -20 -20 -20 -20
-20 -20 -20 -5 -1 -9 -20 -10 -5 -19 -12 4 8 9 17 15 11 10 11 18 13 21 19 20 23 0 -20 -20 -20 -20 -20 -20
Wind_Speed
24 29 28 27 26 24 24 13 12 9 6 13 12 10 11 11 10 13 14 15 16 11 10 10 10 8 7 7 5 4 4 5
20 21 23 27 26 27 25 20 28 11 10 8 14 14 12 11 12 12 10 13 15 14 9 10 11 10 10 8 7 6 5 4
22 21 21 22 26 25 23 25 28 20 12 9 10 14 14 11 13 14 16 16 16 15 12 11 12 10 9 10 9 3 4 4
23 23 21 22 23 26 25 24 27 25 15 12 9 15 14 14 15 13 18 16 18 18 15 9 12 10 8 10 11 11 6 3
22 23 22 21 22 22 23 25 25 25 15 14 14 10 17 15 14 15 15 20 19 18 17 15 13 10 12 9 10 10 8 7
22 22 23 20 19 20 20 23 24 25 25 14 14 12 12 15 14 21 18 18 18 20 19 19 13 11 13 11 13 12 9 7
22 22 21 21 20 21 21 21 22 23 23 22 18 15 12 17 20 17 12 12 13 17 17 16 17 10 13 13 15 15 12 11
19 22 20 20 22 22 21 22 24 22 22 21 18 15 16 19 27 17 18 12 13 17 19 17 16 14 13 13 14 13 15 13
18 18 19 19 20 22 21 20 22 24 21 18 14 12 9 12 24 16 16 16 16 19 19 19 20 18 14 12 7 6 7 6
18 19 17 19 19 20 19 20 21 22 21 16 13 14 15 16 12 5 13 17 15 17 19 20 16 15 13 13 10 12 6 6
16 15 16 17 18 18 20 20 20 22 18 14 11 15 15 17 16 19 19 13 11 10 8 7 8 11 12 11 8 6 7 7
15 14 14 16 17 20 19 21 20 19 17 16 14 15 16 16 16 15 16 16 18 15 12 11 3 5 5 4 6 9 9 8
13 14 15 16 19 20 17 17 16 15 17 14 17 13 15 20 19 15 12 16 13 12 12 12 8 11 3 3 5 5 4 5
14 15 14 14 15 15 13 12 13 13 14 16 15 17 18 20 17 16 16 18 10 14 13 13 14 10 8 8 7 7 6 6
13 15 15 15 15 13 13 13 12 11 14 16 14 18 17 16 14 20 20 19 20 17 13 12 13 8 15 15 16 14 14 11
14 14 15 16 18 18 17 13 14 12 11 13 16 15 14 17 17 18 14 17 14 15 15 13 11 11 12 14 14 12 11 13
16 16 15 16 18 17 19 19 18 18 18 18 16 15 16 11 11 14 18 16 11 10 11 11 9 10 21 19 16 11 11 11
15 16 14 14 16 16 17 17 17 18 20 20 22 19 16 17 15 17 17 14 8 9 9 11 11 11 21 22 19 10 9 10
15 13 13 14 14 14 15 15 16 16 15 16 17 16 17 16 17 16 13 11 14 13 15 15 12 10 17 22 24 11 10 11
Wind_Direction
355 348 344 336 332 335 326 308 293 287 265 225 225 209 229 201 222 205 181 186 187 189 191 183 184 192 195 199 211 161 168 184
352 345 338 333 332 327 333 325 318 275 277 246 227 223 214 227 210 208 191 178 191 189 206 181 182 181 199 190 189 198 203 200
347 346 339 337 325 323 322 325 320 280 259 259 230 227 222 210 222 204 213 184 188 194 201 187 189 183 191 189 185 177 196 180
342 341 342 334 328 326 325 320 311 293 253 255 257 234 224 224 221 210 203 187 188 194 197 198 178 181 192 184 192 187 185 187
341 337 338 332 329 325 325 322 319 325 251 250 252 246 232 220 217 210 193 197 183 187 190 200 179 185 195 184 176 181 160 185
344 341 332 336 334 328 326 328 331 331 335 264 250 239 244 232 217 222 193 195 175 180 189 197 206 182 194 171 163 175 175 168
349 344 340 334 336 332 333 336 336 334 330 321 304 252 251 233 225 214 207 183 173 177 180 189 204 210 175 169 168 172 179 186
350 348 337 337 339 341 334 336 339 334 335 324 321 309 267 243 232 200 199 187 194 181 178 184 196 199 180 171 177 184 192 203
349 343 343 341 337 339 339 341 347 337 331 326 324 346 312 303 235 197 203 194 189 180 177 186 194 186 178 177 171 193 180 207
348 343 342 340 342 344 339 347 348 333 335 331 351 9 8 351 342 330 227 179 179 176 179 185 186 172 174 177 179 187 190 205
343 336 346 342 347 343 347 350 359 334 341 327 2 18 23 13 347 22 309 91 107 100 96 100 155 166 166 177 207 194 204 217
339 337 341 343 349 353 351 358 349 330 339 340 358 23 24 29 11 353 340 49 69 70 63 55 239 114 118 193 222 232 204 205
340 345 345 353 356 352 344 353 335 328 335 358 14 3 27 38 25 331 360 21 42 60 64 63 29 26 290 237 225 216 225 262
347 355 359 355 351 344 338 339 338 334 336 1 29 14 12 41 19 343 26 48 351 47 50 53 46 359 2 336 347 333 309 275
354 358 0 1 353 346 352 348 352 339 352 7 19 29 17 35 348 3 25 39 10 24 39 55 48 9 30 7 7 352 347 334
3 2 2 2 354 354 352 360 11 356 356 7 29 34 26 21 9 12 26 43 24 21 20 33 39 53 34 22 3 344 335 326
3 5 10 4 357 353 352 357 7 360 12 19 12 30 25 25 25 10 22 38 39 42 39 39 30 52 26 14 8 341 329 317
4 9 14 10 359 353 357 357 3 7 9 9 12 9 18 20 16 28 28 31 10 39 42 51 38 42 26 5 356 332 319 296
2 10 17 11 4 357 356 3 9 7 17 14 11 9 18 12 20 17 26 25 23 18 23 22 24 34 19 6 358 344 335 322